www.pogodaiklimat.ru

Погода и климат >> Архив погоды >> Россия >> Татарстан >> Казань


АРХИВ ПОГОДЫ в Казани

Время (UTC), дата Ветер
(напр.,м/с)
 
Видим.   Явления Облачность Т
(С)
Тd
(С)
f
(%)
Тe
(С)
Тes
(С)
Комфортность P
(гПа)
Po
(гПа)
Тmin
(С)
Tmax
(С)
R
(мм)
R24
(мм)
S
(см)
15 16.06 ЮЗ 2 10 км 9/8 600 м
[Cb calv Ac cuf Ci]
+19.2 +12.4 65 +21 +21 комфорт 1002.2 988.4 +20.4 1
18 16.06 З 1 10 км 10/6 1000 м
[Sc Ac und]
+16.8 +13.1 79 +18 +18 по сезону 1002.8 988.9
21 16.06 З 1 10 км 9/8 1000 м
[Sc Ac und]
+15.5 +11.7 78 +16 +16 по сезону 1002.8 988.8
00 17.06 ЮЗ 1 10 км {ливн. осадки} 10/9 1000 м
[Sc Ac und]
+14.7 +11.9 83 +15 +15 по сезону 1002.6 988.6
03 17.06 СЗ 1 10 км {ливн. осадки} 9/6 1000 м
[Cb cap Ac As Ci fib]
+14.2 +11.4 83 +15 +15 по сезону 1003.1 989.1 +13.2 0.5
06 17.06 З 1 10 км {ливн. осадки} 9/3 600 м
[Sc Ac lent]
+16.4 +11.6 73 +17 +20 прохладно 1003.2 989.3
09 17.06 ЮЗ 2 10 км {ливн. осадки} 9/5 600 м
[Cb cap Ac lent]
+18.5 +9.7 57 +19 +22 по сезону 1002.8 989.0
12 17.06 ЮЗ 2 10 км {ливн. осадки} 9/5 600 м
[Cb cap Ac lent]
+18.8 +10.1 57 +20 +22 прохладно 1002.7 988.9
15 17.06 ЮВ 1 10 км 8/3 600 м
[Sc Ac lent]
+18.7 +9.0 53 +20 +21 по сезону 1002.6 988.8 +20.0 0.8
18 17.06 ЮВ 1 10 км 4/3 600 м
[Sc diur, vesp Ac cast]
+14.7 +10.2 74 +15 +15 прохладно 1003.1 989.1
21 17.06 В 1 10 км 3/0
[Ac lent]
+12.5 +10.2 86 +12 +12 прохладно 1002.7 988.6
00 18.06 штиль 0 10 км 3/0
[Ac lent]
+11.6 +10.0 90 +11 +11 прохладно 1002.9 988.7
03 18.06 В 1 10 км 5/0
[Ac lent Ci fib]
+15.2 +12.5 84 +16 +18 по сезону 1003.2 989.2 +11.5
06 18.06 В 1 10 км 8/6 600 м
[Cb calv Ac As]
+17.8 +10.7 63 +19 +22 по сезону 1003.2 989.4
09 18.06 СЗ 3 10 км 8/6 1000 м
[Cb cap Ac As Ci ing]
+20.4 +10.6 53 +22 +26 комфорт 1003.2 989.5
12 18.06 ЮВ 2 10 км слабый ливневой дождь, в посл. час гроза 9/8 1000 м
[Cb cap Ac As Ci ing]
+17.1 +12.3 73 +17 +19 холодно 1003.7 989.8
15 18.06 штиль 0 10 км в посл. час гроза {ливн. осадки} 9/8 600 м
[Cb cap Ac cuf Ci ing]
+16.3 +11.3 72 +16 +17 прохладно 1004.2 990.2 +20.7 4
18 18.06 З 2 10 км {гроза, ливн. осадки} 5/0
[Ac lent Ci fib]
+16.5 +12.0 75 +17 +17 по сезону 1004.3 990.3
21 18.06 З 1 10 км 5/0
[Ac lent Ci fib]
+14.0 +11.4 84 +14 +14 прохладно 1004.6 990.6
00 19.06 СЗ 2 10 км 10/5 300 м
[St Cc]
+12.9 +11.5 91 +12 +12 прохладно 1004.4 990.3
03 19.06 СЗ 1 10 км 5/1 600 м
[Sc Ci fib]
+14.2 +12.4 89 +15 +17 прохладно 1004.1 990.1 +12.7
06 19.06 З 3 10 км 8/5 1000 м
[Cb cap Ci fib]
+18.0 +13.4 74 +18 +22 по сезону 1003.6 989.8
09 19.06 З 4 10 км 8/5 1000 м
[Cb cap Ci fib]
+20.5 +11.5 56 +22 +27 комфорт 1002.5 988.8
12 19.06 СЗ 3 10 км 8/6 1000 м
[Cb cap Ci fib]
+23.8 +9.8 41 +25 +28 комфорт 1000.7 987.1
15 19.06 З 3 10 км 8/6 1000 м
[Cb cap Ci fib]
+24.5 +8.2 35 +25 +25 комфорт 999.1 985.6 +25.0
18 19.06 З 2 10 км 9/8 1000 м
[Cb calv Ac cuf Ci]
+20.0 +10.9 56 +22 +22 комфорт 1000.0 986.3
21 19.06 З 3 10 км 9/8 600 м
[Cb calv Ci]
+16.6 +11.7 73 +16 +16 по сезону 999.6 985.7
00 20.06 З 2 10 км {ливн. осадки} 10/10 300 м
[Cb calv]
+14.9 +12.9 88 +15 +15 по сезону 998.6 984.7
03 20.06 З 3 10 км в посл. час ливневой дождь 9/8 300 м
[Cb calv Ac cuf Cc]
+15.3 +12.9 86 +15 +15 прохладно 998.4 984.5 +14.8 0.3
06 20.06 З 4 10 км {ливн. осадки} 9/9 600 м
[Cb cap]
+17.9 +11.5 66 +18 +19 прохладно 998.7 985.0
09 20.06 С 1 10 км {гроза, ливн. осадки} 9/9 600 м
[Cb calv]
+16.9 +12.2 74 +18 +20 прохладно 998.8 985.0
12 20.06 З 5-10
{10}
10 км гроза, ливневой дождь 9/8 600 м
[Cb calv Cs]
+16.1 +9.4 64 +15 +16 очень
холодно
999.5 985.6
15 20.06 З 3
{10}
10 км {гроза, ливн. осадки} 5/3 1000 м
[Cb calv Ac cast Cs]
+18.1 +8.6 54 +18 +19 прохладно 1000.0 986.2 +19.1 5
18 20.06 З 1 10 км {гроза, ливн. осадки} 3/3 600 м
[Sc]
+15.3 +8.4 63 +16 +16 прохладно 1001.4 987.5
21 20.06 З 1 н/о н/о +12.8 +8.7 76 +13 +13 прохладно 1001.8 987.7
00 21.06 штиль 0 10 км ясно +10.7 +8.1 84 +10 +10 холодно 1001.6 987.4
03 21.06 ЮВ 1 10 км 4/0
[Ci fib]
+15.4 +9.4 67 +16 +19 по сезону 1000.9 986.9 +10.5
06 21.06 ЮЗ 2 10 км 10/0
[Ac As Cs]
+20.8 +7.6 42 +23 +29 комфорт 999.4 985.8
09 21.06 Ю 2 10 км 10/3 600 м
[Cu Sc As op]
+21.7 +10.0 47 +23 +25 комфорт 998.0 984.4
12 21.06 ЮЗ 5-12
{12}
10 км слабый ливневой дождь 10/5 600 м
[Cb cap As op]
+21.2 +12.2 56 +23 +24 комфорт 997.4 983.8
15 21.06 ЮЗ 4
{12}
10 км {ливн. осадки} 9/1 600 м
[Sc Ac lent]
+20.1 +12.5 62 +22 +22 комфорт 996.8 983.2 +22.5
18 21.06 З 2 10 км {ливн. осадки} 10/10 600 м
[Cb calv]
+17.6 +13.6 77 +18 +18 по сезону 997.5 983.7
21 21.06 штиль 0 10 км {ливн. осадки} 6/3 1000 м
[Sc diur, vesp Ac lent]
+13.2 +11.9 92 +13 +13 прохладно 998.2 984.2
00 22.06 ЮЗ 1 10 км {ливн. осадки} 8/0
[Cs]
+11.9 +10.2 89 +12 +12 прохладно 999.0 984.9
03 22.06 З 2 10 км 3/0
[Cc]
+14.3 +8.5 68 +14 +17 прохладно 999.7 985.7 +11.8 3
06 22.06 З 3 10 км 8/3 1000 м
[Cu med, cong Ci]
+17.8 +5.7 45 +18 +24 прохладно 999.5 985.7
09 22.06 З 5 10 км 8/8 600 м
[Cb calv]
+19.1 +5.7 41 +19 +21 прохладно 999.6 985.9
12 22.06 З 4
{10}
10 км слабый ливневой дождь 9/9 600 м
[Cb calv]
+13.5 +9.2 75 +12 +13 очень
холодно
1001.3 987.3
15 22.06 З 3 10 км {ливн. осадки} 9/9 600 м
[Cb calv]
+14.6 +8.7 68 +14 +14 очень
холодно
1001.6 987.6 +19.8 1
18 22.06 ЮЗ 2 10 км {ливн. осадки} 3/3 600 м
[Sc]
+13.3 +7.4 67 +13 +13 холодно 1003.0 988.9
21 22.06 З 2 10 км ясно +11.6 +7.6 76 +11 +11 холодно 1004.0 989.9
00 23.06 З 2 10 км ясно +10.4 +7.8 84 +9 +9 холодно 1004.8 990.5
03 23.06 З 1 10 км 5/0
[Ci fib]
+12.1 +8.4 78 +12 +15 холодно 1005.9 991.7 +10.0
06 23.06 З 2 10 км 5/3 300 м
[Cu hum Ci fib]
+15.6 +5.1 50 +16 +23 прохладно 1006.2 992.2
09 23.06 В 1 10 км {гроза, ливн. осадки} 9/8 300 м
[Cb cap Ac trans]
+14.3 +9.9 75 +15 +17 холодно 1006.5 992.4
12 23.06 ЮВ 2 10 км в посл. час гроза {ливн. осадки} 10/10 300 м
[Cb cap]
+11.1 +9.7 91 +10 +10 очень
холодно
1006.2 992.0

 

Местоположение метеостанции Казань (Татарстан, Россия): широта 55.73 долгота 49.20 высота над уровнем моря 119 м.

В архиве по умолчанию представлена погода в Казани за последнюю неделю. Архивные данные за месяц целиком и за предыдущие месяцы, начиная с января 2011 года, Вы можете получить, выбрав интересующий диапазон дат из раскрывающегося списка и нажав кнопку "Ввод!".

Внимание! Время в таблицах - всемирное. Для получения местного времени необходимо прибавить поправку, которая в Казани равна 3 ч.

Смотрите также архив погоды в соседних городах и на ближайших метеорологических станциях:

Погода в Лаишево (Татарстан, Россия) (40 км)
Погода в Вязовых (Татарстан, Россия) (44 км)
Погода в Арске (Татарстан, Россия) (57 км)
Погода в Больших Кайбицах (Татарстан, Россия) (74 км)
Погода в Морках (Марий-Эл, Россия) (79 км)
Погода в Тетюшах (Татарстан, Россия) (91 км)
Погода в Чистополе (Татарстан, Россия) (102 км)
Погода в Канаше (Чувашия, Россия) (111 км)
Погода в Чебоксарах (Чувашия, Россия) (123 км)
Погода в Батырево (Чувашия, Россия) (125 км)

Пояснения к столбцам:

Ветер - указаны скорость ветра в м/с - средняя за 10 мин, порывы в срок и между сроками (в фигурных скобках) и направление, откуда дует ветер: С - северный, СВ - северо-восточный, В - восточный, ЮВ - юго-восточный, Ю - южный, ЮЗ - юго-западный, З - западный, СЗ - северо-западный.
Видимость - горизонтальная дальность видимости в метрах или километрах. При видимости от 1 до 10 км при отсутствии осадков обычно наблюдается дымка, при ухудшении видимости до 1 км и менее - туман. В сухую погоду видимость может ухудшаться дымом, пылью или мглою.
Явления - указаны атмосферные явления, наблюдавшиеся в срок или в последний час перед сроком; фигурными скобками обозначены явления, наблюдавшиеся между сроками (за 1-3 часа до срока); квадратными скобками обозначены град или гололедные отложения с указанием их диаметра в мм.
Облачность - указаны через наклонную черту общая и нижняя облачность в баллах и высота нижней границы облаков в метрах; квадратными скобками обозначены формы облаков: Ci - перистые, Cs - перисто-слоистые, Cc - перисто-кучевые, Ac - высококучевые, As - высокослоистые, Sc - слоисто-кучевые, Ns - слоисто-дождевые, Cu - кучевые, Cb - кучево-дождевые. Подробнее классификацию облаков см. в Атласе облаков (PDF).
T - Температура воздуха - температура, измеренная на высоте 2 м над землей.
Td - Температура точки росы - температура, при понижении до которой содержащийся в воздухе водяной пар достигнет насыщения.
f - Относительная влажность воздуха - влажноcть воздуха, измеренная на высоте 2 м над землей.
Te - Эффективная температура - температура, которую ощущает одетый по сезону человек в тени. Характеристика душности погоды. При расчете учитывается влияние влажности воздуха и скорости ветра на теплоощущения человека.
Tes - Эффективная температура на солнце - температура, которую ощущает человек, с поправкой на солнечный нагрев. Характеристика знойности погоды. Зависит от высоты солнца над горизонтом, облачности и скорости ветра. Ночью, в пасмурную погоду, а также при ветре 12 м/с и более поправка равна нулю.
P - Атмосферное давление - приведенное к уровню моря атмосферное давление.
Po - Атмосферное давление - измеренное на уровне метеостанции атмосферное давление.
Tmin - Минимальная температура - минимум температуры воздуха на высоте 2 м над землей.
Tmax - Максимальная температура - максимум температуры воздуха на высоте 2 м над землей.
R - Количество осадков - Количество выпавших осадков за период времени, мм. При наведении курсора мыши на число - период времени, за который выпало указанное количество осадков.
R24 - Количество осадков - Количество выпавших осадков за 24 часа, мм.
S - Снежный покров - Высота снежного покрова, см. При наведении курсора мыши на число - состояние снежного покрова и степень покрытия местности в баллах.